Regional Weather Roundup
Issued by NWS

Home | Current Version | Previous Version | Graphics & Text | Print | Product List | Glossary On
Versions: 1 2 3 4 5 6 7 8 9 10 11 12 13 14 15 16 17 18 19 20 21 22 23 24 25 26 27 28 29 30 31 32 33 34 35 36 37 38 39 40 41 42 43 44 45 46 47 48 49 50
000
ASUS43 KFSD 160710
RWRSD

WEATHER ROUNDUP FOR SOUTH DAKOTA
NATIONAL WEATHER SERVICE SIOUX FALLS SD
200 AM CDT TUE SEP 16 2014

NOTE: "FAIR" INDICATES FEW OR NO CLOUDS BELOW 12,000 FEET WITH NO
SIGNIFICANT WEATHER AND/OR OBSTRUCTIONS TO VISIBILITY.


SDZ001>005-009-010-012>017-160800-
NORTHWEST AND NORTH CENTRAL SOUTH DAKOTA

CITY           SKY/WX    TMP DP  RH WIND       PRES   REMARKS
BUFFALO          N/A     50  41  71 CALM      30.00F
FAITH            N/A     48  38  68 SE17      30.07F
MOBRIDGE       CLEAR     50  41  71 S13       30.11F
$$

SDZ012>016-024>037-041>051-057-063-072>074-160800-
SOUTHWEST AND SOUTH CENTRAL SOUTH DAKOTA

CITY           SKY/WX    TMP DP  RH WIND       PRES   REMARKS
RAPID CTY ARPT CLEAR     48  42  80 SE6       30.07F
PIERRE         CLEAR     49  38  65 SE12      30.12F
CUSTER         CLEAR     44  38  79 NW5       30.17F
ELLSWORTH AFB  CLEAR     52  43  71 NW2       30.06F
PHILIP         CLEAR     51  40  65 SE3       30.09F
PINE RIDGE     CLEAR     58  47  66 S18G30    30.09F
WINNER         FAIR      52  39  61 S10       30.15F
$$

SDZ004>011-016>023-039-040-160800-
NORTHEAST SOUTH DAKOTA

CITY           SKY/WX    TMP DP  RH WIND       PRES   REMARKS
ABERDEEN       CLEAR     34  33  96 S6        30.17F WCI  29
WATERTOWN      CLEAR     41  36  82 SE3       30.20S
SISSETON         N/A     49  39  68 SW12      30.16F
$$

SDZ017-020-022-023-036>040-048>070-160800-
SOUTHEAST SOUTH DAKOTA

CITY           SKY/WX    TMP DP  RH WIND       PRES   REMARKS
SIOUX FALLS    CLEAR     43  41  93 CALM      30.23F
HURON          CLEAR     42  35  76 S5        30.19F
CHAMBERLAIN    CLEAR     43  39  85 SE6       30.18S
MITCHELL       CLEAR     44  39  82 S8        30.21F
YANKTON        CLEAR     45  39  81 CALM      30.25R
$$

ABBREVIATIONS USED IN REMARKS
   TC - TEMPERATURE IN CELSIUS
  WCI - WIND CHILL INDEX
   HX - HEAT INDEX
  VSB - VISIBILITY



USA.gov is the U.S. government's official web portal to all federal, state and local government web resources and services.